Time,TemperatureF,DewpointF,PressureIn,WindDirection,WindDirectionDegrees,WindSpeedMPH,WindSpeedGustMPH,Humidity,HourlyPrecipIn,Conditions,Clouds,dailyrainin,SolarRadiationWatts/m^2,SoftwareType,DateUTC
2013-01-22 00:12:00,42.0,32.0,-100.00,NE,39,8.0,17.0,68,0.00,,,0.00,0.000000,,2013-01-22 09:12:00,
2013-01-22 00:22:00,42.0,32.0,-100.00,NE,39,8.0,17.0,68,0.00,,,0.00,0.000000,,2013-01-22 09:22:00,
2013-01-22 00:32:00,42.0,32.0,-100.00,NE,39,8.0,17.0,68,0.00,,,0.00,0.000000,,2013-01-22 09:32:00,
2013-01-22 00:42:00,42.0,32.0,-100.00,NE,39,8.0,17.0,68,0.00,,,0.00,0.000000,,2013-01-22 09:42:00,
2013-01-22 00:52:00,42.0,32.0,-100.00,NE,39,8.0,17.0,68,0.00,,,0.00,0.000000,,2013-01-22 09:52:00,
2013-01-22 01:22:00,43.0,31.0,-100.00,NNE,28,11.0,19.0,62,0.00,,,-99.99,0.000000,,2013-01-22 10:22:00,
2013-01-22 01:32:00,43.0,31.0,-100.00,NNE,28,11.0,19.0,62,0.00,,,-99.99,0.000000,,2013-01-22 10:32:00,
2013-01-22 01:42:00,43.0,31.0,-100.00,NNE,28,11.0,19.0,62,0.00,,,-99.99,0.000000,,2013-01-22 10:42:00,
2013-01-22 01:52:00,43.0,31.0,-100.00,NNE,28,11.0,19.0,62,0.00,,,-99.99,0.000000,,2013-01-22 10:52:00,
2013-01-22 02:22:00,42.0,32.0,-100.00,NNE,28,9.0,19.0,68,0.00,,,0.00,0.000000,,2013-01-22 11:22:00,
2013-01-22 02:33:00,42.0,32.0,-100.00,NNE,28,9.0,19.0,68,0.00,,,0.00,0.000000,,2013-01-22 11:33:00,
2013-01-22 02:42:00,42.0,32.0,-100.00,NNE,28,9.0,19.0,68,0.00,,,0.00,0.000000,,2013-01-22 11:42:00,
2013-01-22 02:52:00,42.0,32.0,-100.00,NNE,28,9.0,19.0,68,0.00,,,0.00,0.000000,,2013-01-22 11:52:00,
2013-01-22 03:12:00,42.0,31.0,-100.00,NNE,28,11.0,30.0,65,0.00,,,0.00,0.000000,,2013-01-22 12:12:00,
2013-01-22 03:22:00,42.0,31.0,-100.00,NNE,28,11.0,30.0,65,0.00,,,0.00,0.000000,,2013-01-22 12:22:00,
2013-01-22 03:32:00,42.0,31.0,-100.00,NNE,28,11.0,30.0,65,0.00,,,0.00,0.000000,,2013-01-22 12:32:00,
2013-01-22 03:42:00,42.0,31.0,-100.00,NNE,28,11.0,30.0,65,0.00,,,0.00,0.000000,,2013-01-22 12:42:00,
2013-01-22 03:52:00,42.0,31.0,-100.00,NNE,28,11.0,30.0,65,0.00,,,0.00,0.000000,,2013-01-22 12:52:00,
2013-01-22 04:13:00,42.0,31.0,-100.00,NNE,14,10.0,24.0,65,0.00,,,0.00,0.000000,,2013-01-22 13:13:00,
2013-01-22 04:23:00,42.0,31.0,-100.00,NNE,14,10.0,24.0,65,0.00,,,0.00,0.000000,,2013-01-22 13:23:00,
2013-01-22 04:33:00,42.0,31.0,-100.00,NNE,14,10.0,24.0,65,0.00,,,0.00,0.000000,,2013-01-22 13:33:00,
2013-01-22 04:42:00,42.0,31.0,-100.00,NNE,14,10.0,24.0,65,0.00,,,0.00,0.000000,,2013-01-22 13:42:00,
2013-01-22 04:52:00,42.0,31.0,-100.00,NNE,14,10.0,24.0,65,0.00,,,0.00,0.000000,,2013-01-22 13:52:00,
2013-01-22 05:12:00,41.0,31.0,-100.00,NNE,13,10.0,23.0,68,0.00,,,0.00,0.000000,,2013-01-22 14:12:00,
2013-01-22 05:23:00,41.0,31.0,-100.00,NNE,13,10.0,23.0,68,0.00,,,0.00,0.000000,,2013-01-22 14:23:00,
2013-01-22 05:33:00,41.0,31.0,-100.00,NNE,13,10.0,23.0,68,0.00,,,0.00,0.000000,,2013-01-22 14:33:00,
2013-01-22 05:43:00,41.0,31.0,-100.00,NNE,13,10.0,23.0,68,0.00,,,0.00,0.000000,,2013-01-22 14:43:00,
2013-01-22 05:52:00,41.0,31.0,-100.00,NNE,13,10.0,23.0,68,0.00,,,0.00,0.000000,,2013-01-22 14:52:00,
2013-01-22 06:12:00,41.0,32.0,-100.00,NNW,343,7.0,16.0,69,0.00,,,0.00,0.000000,,2013-01-22 15:12:00,
2013-01-22 06:23:00,41.0,32.0,-100.00,NNW,343,7.0,16.0,69,0.00,,,0.00,0.000000,,2013-01-22 15:23:00,
2013-01-22 06:33:00,41.0,32.0,-100.00,NNW,343,7.0,16.0,69,0.00,,,0.00,0.000000,,2013-01-22 15:33:00,
2013-01-22 06:43:00,41.0,32.0,-100.00,NNW,343,7.0,16.0,69,0.00,,,0.00,0.000000,,2013-01-22 15:43:00,
2013-01-22 06:52:00,41.0,32.0,-100.00,NNW,343,7.0,16.0,69,0.00,,,0.00,0.000000,,2013-01-22 15:52:00,
2013-01-22 07:13:00,40.0,30.0,-100.00,North,355,6.0,18.0,67,0.00,,,0.00,0.000000,,2013-01-22 16:13:00,
2013-01-22 07:23:00,40.0,30.0,-100.00,North,355,6.0,18.0,67,0.00,,,0.00,0.000000,,2013-01-22 16:23:00,
2013-01-22 07:33:00,40.0,30.0,-100.00,North,355,6.0,18.0,67,0.00,,,0.00,0.000000,,2013-01-22 16:33:00,
2013-01-22 07:43:00,40.0,30.0,-100.00,North,355,6.0,18.0,67,0.00,,,0.00,0.000000,,2013-01-22 16:43:00,
2013-01-22 07:52:00,40.0,30.0,-100.00,North,355,6.0,18.0,67,0.00,,,0.00,0.000000,,2013-01-22 16:52:00,
2013-01-22 08:23:00,40.0,31.0,-100.00,NNW,343,7.0,15.0,69,0.00,,,0.00,0.000000,,2013-01-22 17:23:00,
2013-01-22 08:33:00,40.0,31.0,-100.00,NNW,343,7.0,15.0,69,0.00,,,0.00,0.000000,,2013-01-22 17:33:00,
2013-01-22 08:43:00,40.0,31.0,-100.00,NNW,343,7.0,15.0,69,0.00,,,0.00,0.000000,,2013-01-22 17:43:00,
2013-01-22 08:53:00,40.0,31.0,-100.00,NNW,343,7.0,15.0,69,0.00,,,0.00,0.000000,,2013-01-22 17:53:00,
2013-01-22 09:12:00,41.0,32.0,-100.00,NNE,19,9.0,16.0,70,0.00,,,0.00,0.000000,,2013-01-22 18:12:00,
2013-01-22 09:23:00,41.0,32.0,-100.00,NNE,19,9.0,16.0,70,0.00,,,0.00,0.000000,,2013-01-22 18:23:00,
2013-01-22 09:33:00,41.0,32.0,-100.00,NNE,19,9.0,16.0,70,0.00,,,0.00,0.000000,,2013-01-22 18:33:00,
2013-01-22 09:43:00,41.0,32.0,-100.00,NNE,19,9.0,16.0,70,0.00,,,0.00,0.000000,,2013-01-22 18:43:00,
2013-01-22 09:53:00,41.0,32.0,-100.00,NNE,19,9.0,16.0,70,0.00,,,0.00,0.000000,,2013-01-22 18:53:00,
2013-01-22 10:13:00,40.0,30.0,-100.00,NNE,28,7.0,18.0,68,0.00,,,0.00,0.000000,,2013-01-22 19:13:00,
2013-01-22 10:23:00,40.0,30.0,-100.00,NNE,28,7.0,18.0,68,0.00,,,0.00,0.000000,,2013-01-22 19:23:00,
2013-01-22 10:33:00,40.0,30.0,-100.00,NNE,28,7.0,18.0,68,0.00,,,0.00,0.000000,,2013-01-22 19:33:00,
2013-01-22 10:43:00,40.0,30.0,-100.00,NNE,28,7.0,18.0,68,0.00,,,0.00,0.000000,,2013-01-22 19:43:00,
2013-01-22 10:53:00,40.0,30.0,-100.00,NNE,28,7.0,18.0,68,0.00,,,0.00,0.000000,,2013-01-22 19:53:00,
2013-01-22 11:12:00,40.0,31.0,-100.00,NNE,16,9.0,15.0,71,0.00,,,0.00,16.000000,,2013-01-22 20:12:00,
2013-01-22 11:23:00,40.0,31.0,-100.00,NNE,16,9.0,15.0,71,0.00,,,0.00,16.000000,,2013-01-22 20:23:00,
2013-01-22 11:33:00,40.0,31.0,-100.00,NNE,16,9.0,15.0,71,0.00,,,0.00,16.000000,,2013-01-22 20:33:00,
2013-01-22 11:42:00,40.0,31.0,-100.00,NNE,16,9.0,15.0,71,0.00,,,0.00,16.000000,,2013-01-22 20:42:00,
2013-01-22 11:52:00,40.0,31.0,-100.00,NNE,16,9.0,15.0,71,0.00,,,0.00,16.000000,,2013-01-22 20:52:00,
2013-01-22 12:13:00,41.0,31.0,-100.00,NNE,32,10.0,18.0,68,0.00,,,-99.99,48.000000,,2013-01-22 21:13:00,
2013-01-22 12:22:00,41.0,31.0,-100.00,NNE,32,10.0,18.0,68,0.00,,,-99.99,48.000000,,2013-01-22 21:22:00,
2013-01-22 12:33:00,41.0,31.0,-100.00,NNE,32,10.0,18.0,68,0.00,,,-99.99,48.000000,,2013-01-22 21:33:00,
2013-01-22 12:43:00,41.0,31.0,-100.00,NNE,32,10.0,18.0,68,0.00,,,-99.99,48.000000,,2013-01-22 21:43:00,
2013-01-22 12:52:00,41.0,31.0,-100.00,NNE,32,10.0,18.0,68,0.00,,,-99.99,48.000000,,2013-01-22 21:52:00,
2013-01-22 13:12:00,41.0,31.0,-100.00,NE,37,7.0,20.0,66,0.00,,,0.00,33.000000,,2013-01-22 22:12:00,
2013-01-22 13:22:00,41.0,31.0,-100.00,NE,37,7.0,20.0,66,0.00,,,0.00,33.000000,,2013-01-22 22:22:00,
2013-01-22 13:32:00,41.0,31.0,-100.00,NE,37,7.0,20.0,66,0.00,,,0.00,33.000000,,2013-01-22 22:32:00,
2013-01-22 13:43:00,41.0,31.0,-100.00,NE,37,7.0,20.0,66,0.00,,,0.00,33.000000,,2013-01-22 22:43:00,
2013-01-22 13:52:00,41.0,31.0,-100.00,NE,37,7.0,20.0,66,0.00,,,0.00,33.000000,,2013-01-22 22:52:00,
2013-01-22 14:12:00,41.0,31.0,-100.00,North,351,7.0,15.0,67,0.00,,,0.00,26.000000,,2013-01-22 23:12:00,
2013-01-22 14:23:00,41.0,31.0,-100.00,North,351,7.0,15.0,67,0.00,,,0.00,26.000000,,2013-01-22 23:23:00,
2013-01-22 14:33:00,41.0,31.0,-100.00,North,351,7.0,15.0,67,0.00,,,0.00,26.000000,,2013-01-22 23:33:00,
2013-01-22 14:42:00,41.0,31.0,-100.00,North,351,7.0,15.0,67,0.00,,,0.00,26.000000,,2013-01-22 23:42:00,
2013-01-22 14:52:00,41.0,31.0,-100.00,North,351,7.0,15.0,67,0.00,,,0.00,26.000000,,2013-01-22 23:52:00,
2013-01-22 15:12:00,40.0,30.0,-100.00,NNW,339,7.0,16.0,66,0.00,,,0.00,28.000000,,2013-01-23 00:12:00,
2013-01-22 15:22:00,40.0,30.0,-100.00,NNW,339,7.0,16.0,66,0.00,,,0.00,28.000000,,2013-01-23 00:22:00,
2013-01-22 15:33:00,40.0,30.0,-100.00,NNW,339,7.0,16.0,66,0.00,,,0.00,28.000000,,2013-01-23 00:33:00,
2013-01-22 15:42:00,40.0,30.0,-100.00,NNW,339,7.0,16.0,66,0.00,,,0.00,28.000000,,2013-01-23 00:42:00,
2013-01-22 15:52:00,40.0,30.0,-100.00,NNW,339,7.0,16.0,66,0.00,,,0.00,28.000000,,2013-01-23 00:52:00,
2013-01-22 16:22:00,40.0,29.0,-100.00,NNW,341,9.0,15.0,65,0.00,,,0.00,18.000000,,2013-01-23 01:22:00,
2013-01-22 16:33:00,40.0,29.0,-100.00,NNW,341,9.0,15.0,65,0.00,,,0.00,18.000000,,2013-01-23 01:33:00,
2013-01-22 16:42:00,40.0,29.0,-100.00,NNW,341,9.0,15.0,65,0.00,,,0.00,18.000000,,2013-01-23 01:42:00,
2013-01-22 16:52:00,40.0,29.0,-100.00,NNW,341,9.0,15.0,65,0.00,,,0.00,18.000000,,2013-01-23 01:52:00,
2013-01-22 17:12:00,40.0,30.0,-100.00,North,4,6.0,15.0,67,0.00,,,0.00,8.000000,,2013-01-23 02:12:00,
2013-01-22 17:23:00,40.0,30.0,-100.00,North,4,6.0,15.0,67,0.00,,,0.00,8.000000,,2013-01-23 02:23:00,
2013-01-22 17:33:00,40.0,30.0,-100.00,North,4,6.0,15.0,67,0.00,,,0.00,8.000000,,2013-01-23 02:33:00,
2013-01-22 17:42:00,40.0,30.0,-100.00,North,4,6.0,15.0,67,0.00,,,0.00,8.000000,,2013-01-23 02:42:00,
2013-01-22 17:52:00,40.0,30.0,-100.00,North,4,6.0,15.0,67,0.00,,,0.00,8.000000,,2013-01-23 02:52:00,
2013-01-22 18:12:00,40.0,30.0,-100.00,NNW,346,8.0,14.0,68,0.00,,,0.00,1.000000,,2013-01-23 03:12:00,
2013-01-22 18:23:00,40.0,30.0,-100.00,NNW,346,8.0,14.0,68,0.00,,,0.00,1.000000,,2013-01-23 03:23:00,
2013-01-22 18:32:00,40.0,30.0,-100.00,NNW,346,8.0,14.0,68,0.00,,,0.00,1.000000,,2013-01-23 03:32:00,
2013-01-22 18:42:00,40.0,30.0,-100.00,NNW,346,8.0,14.0,68,0.00,,,0.00,1.000000,,2013-01-23 03:42:00,
2013-01-22 18:52:00,40.0,30.0,-100.00,NNW,346,8.0,14.0,68,0.00,,,0.00,1.000000,,2013-01-23 03:52:00,
2013-01-22 19:12:00,40.0,30.0,-100.00,North,3,9.0,19.0,68,0.00,,,0.00,0.000000,,2013-01-23 04:12:00,
2013-01-22 19:22:00,40.0,30.0,-100.00,North,3,9.0,19.0,68,0.00,,,0.00,0.000000,,2013-01-23 04:22:00,
2013-01-22 19:32:00,40.0,30.0,-100.00,North,3,9.0,19.0,68,0.00,,,0.00,0.000000,,2013-01-23 04:32:00,
2013-01-22 19:43:00,40.0,30.0,-100.00,North,3,9.0,19.0,68,0.00,,,0.00,0.000000,,2013-01-23 04:43:00,
2013-01-22 19:52:00,40.0,30.0,-100.00,North,3,9.0,19.0,68,0.00,,,0.00,0.000000,,2013-01-23 04:52:00,
2013-01-22 20:12:00,40.0,30.0,-100.00,North,0,7.0,16.0,66,0.00,,,0.00,0.000000,,2013-01-23 05:12:00,
2013-01-22 20:22:00,40.0,30.0,-100.00,North,0,7.0,16.0,66,0.00,,,0.00,0.000000,,2013-01-23 05:22:00,
2013-01-22 20:33:00,40.0,30.0,-100.00,North,0,7.0,16.0,66,0.00,,,0.00,0.000000,,2013-01-23 05:33:00,
2013-01-22 20:42:00,40.0,30.0,-100.00,North,0,7.0,16.0,66,0.00,,,0.00,0.000000,,2013-01-23 05:42:00,
2013-01-22 20:52:00,40.0,30.0,-100.00,North,0,7.0,16.0,66,0.00,,,0.00,0.000000,,2013-01-23 05:52:00,
2013-01-22 21:12:00,40.0,30.0,-100.00,North,356,4.0,14.0,67,0.00,,,0.00,0.000000,,2013-01-23 06:12:00,
2013-01-22 21:22:00,40.0,30.0,-100.00,North,356,4.0,14.0,67,0.00,,,0.00,0.000000,,2013-01-23 06:22:00,
2013-01-22 21:32:00,40.0,30.0,-100.00,North,356,4.0,14.0,67,0.00,,,0.00,0.000000,,2013-01-23 06:32:00,
2013-01-22 21:42:00,40.0,30.0,-100.00,North,356,4.0,14.0,67,0.00,,,0.00,0.000000,,2013-01-23 06:42:00,
2013-01-22 21:52:00,40.0,30.0,-100.00,North,356,4.0,14.0,67,0.00,,,0.00,0.000000,,2013-01-23 06:52:00,
2013-01-22 22:12:00,40.0,30.0,-100.00,North,359,6.0,14.0,68,0.00,,,0.00,0.000000,,2013-01-23 07:12:00,
2013-01-22 22:22:00,40.0,30.0,-100.00,North,359,6.0,14.0,68,0.00,,,0.00,0.000000,,2013-01-23 07:22:00,
2013-01-22 22:33:00,40.0,30.0,-100.00,North,359,6.0,14.0,68,0.00,,,0.00,0.000000,,2013-01-23 07:33:00,
2013-01-22 22:42:00,40.0,30.0,-100.00,North,359,6.0,14.0,68,0.00,,,0.00,0.000000,,2013-01-23 07:42:00,
2013-01-22 22:52:00,40.0,30.0,-100.00,North,359,6.0,14.0,68,0.00,,,0.00,0.000000,,2013-01-23 07:52:00,
2013-01-22 23:22:00,40.0,30.0,-100.00,NNE,12,6.0,14.0,68,0.00,,,0.00,0.000000,,2013-01-23 08:22:00,
2013-01-22 23:33:00,40.0,30.0,-100.00,NNE,12,6.0,14.0,68,0.00,,,0.00,0.000000,,2013-01-23 08:33:00,
2013-01-22 23:42:00,40.0,30.0,-100.00,NNE,12,6.0,14.0,68,0.00,,,0.00,0.000000,,2013-01-23 08:42:00,
2013-01-22 23:52:00,40.0,30.0,-100.00,NNE,12,6.0,14.0,68,0.00,,,0.00,0.000000,,2013-01-23 08:52:00,